| time (UTC) | temp F | wind direction | speed knots | gust knots | rain 1hr in | rain 24hr in | rain mn in | humidity % | barometer mb |
| 20260508005238 | 46 | 29 | 0.9 | 0.9 | 0.00 | 0.00 | 0.00 | 60 | 1007.7 |
| 20260508004733 | 46 | 349 | 1.7 | 1.7 | 0.00 | 0.00 | 0.00 | 59 | 1007.9 |
| 20260508004230 | 47 | 17 | 2.6 | 2.6 | 0.00 | 0.00 | 0.00 | 58 | 1008.0 |
| 20260508003727 | 47 | 334 | 2.6 | 2.6 | 0.00 | 0.00 | 0.00 | 58 | 1007.7 |
| 20260508003224 | 47 | 51 | 0.9 | 0.9 | 0.00 | 0.00 | 0.00 | 57 | 1007.7 |
| 20260508002721 | 48 | 9 | 4.3 | 5.2 | 0.00 | 0.00 | 0.00 | 55 | 1007.7 |
| 20260508002218 | 48 | 25 | 1.7 | 1.7 | 0.00 | 0.00 | 0.00 | 52 | 1007.8 |
| 20260508001714 | 48 | 359 | 1.7 | 1.7 | 0.00 | 0.00 | 0.00 | 50 | 1007.7 |
| 20260508001209 | 47 | 339 | 1.7 | 1.7 | 0.00 | 0.00 | 0.00 | 51 | 1007.4 |
| 20260508000706 | 47 | 117 | 0.9 | 0.9 | 0.00 | 0.00 | 0.00 | 52 | 1007.6 |
| 20260508000204 | 48 | 133 | 0.9 | 0.9 | 0.00 | 0.00 | 0.00 | 52 | 1007.6 |
| 20260507235659 | 48 | 119 | 0.0 | 0.9 | 0.00 | 0.00 | 0.00 | 51 | 1007.5 |
| 20260507235157 | 49 | 23 | 0.9 | 0.9 | 0.00 | 0.00 | 0.00 | 50 | 1007.4 |
| 20260507234654 | 49 | 46 | 1.7 | 1.7 | 0.00 | 0.00 | 0.00 | 48 | 1007.4 |
| 20260507234150 | 49 | 325 | 0.0 | 0.0 | 0.00 | 0.00 | 0.00 | 51 | 1007.3 |
| 20260507233647 | 49 | 318 | 0.9 | 1.7 | 0.00 | 0.00 | 0.00 | 48 | 1007.2 |
| 20260507233146 | 50 | 138 | 0.0 | 0.9 | 0.00 | 0.00 | 0.00 | 50 | 1007.3 |
| 20260507232642 | 50 | 238 | 0.9 | 1.7 | 0.00 | 0.00 | 0.00 | 50 | 1007.1 |
| 20260507232139 | 50 | 276 | 0.9 | 0.9 | 0.00 | 0.00 | 0.00 | 49 | 1007.2 |
| 20260507231635 | 50 | 195 | 0.9 | 0.9 | 0.00 | 0.00 | 0.00 | 48 | 1007.2 |
| 20260507231133 | 50 | 166 | 0.0 | 0.0 | 0.00 | 0.00 | 0.00 | 49 | 1007.2 |
| 20260507230629 | 50 | 51 | 0.9 | 1.7 | 0.00 | 0.00 | 0.00 | 46 | 1007.4 |
| 20260507230126 | 50 | 206 | 1.7 | 2.6 | 0.00 | 0.00 | 0.00 | 46 | 1007.3 |
| 20260507225626 | 50 | 346 | 0.9 | 1.7 | 0.00 | 0.00 | 0.00 | 46 | 1007.3 |
| 20260507225123 | 50 | 353 | 0.9 | 1.7 | 0.00 | 0.00 | 0.00 | 49 | 1007.3 |
| 20260507224618 | 50 | 312 | 3.5 | 4.3 | 0.00 | 0.00 | 0.00 | 48 | 1007.1 |
| 20260507224115 | 50 | 319 | 2.6 | 2.6 | 0.00 | 0.00 | 0.00 | 50 | 1007.3 |
| 20260507223611 | 50 | 7 | 2.6 | 6.1 | 0.00 | 0.00 | 0.00 | 48 | 1007.2 |
| 20260507223108 | 50 | 28 | 2.6 | 2.6 | 0.00 | 0.00 | 0.00 | 48 | 1007.1 |
| 20260507222605 | 50 | 309 | 2.6 | 2.6 | 0.00 | 0.00 | 0.00 | 47 | 1007.0 |
| 20260507222101 | 49 | 348 | 1.7 | 2.6 | 0.00 | 0.00 | 0.00 | 50 | 1007.2 |
| 20260507221558 | 50 | 331 | 3.5 | 4.3 | 0.00 | 0.00 | 0.00 | 50 | 1007.2 |
| 20260507221055 | 51 | 303 | 3.5 | 5.2 | 0.00 | 0.00 | 0.00 | 48 | 1007.2 |
| 20260507220552 | 51 | 49 | 0.9 | 0.9 | 0.00 | 0.00 | 0.00 | 43 | 1006.9 |
| 20260507220049 | 52 | 255 | 1.7 | 1.7 | 0.00 | 0.00 | 0.00 | 41 | 1006.6 |
| 20260507215545 | 52 | 279 | 3.5 | 4.3 | 0.00 | 0.00 | 0.00 | 38 | 1007.0 |
| 20260507215044 | 53 | 268 | 4.3 | 7.0 | 0.00 | 0.00 | 0.00 | 37 | 1006.6 |
| 20260507214540 | 53 | 239 | 2.6 | 4.3 | 0.00 | 0.00 | 0.00 | 39 | 1006.6 |
| 20260507214036 | 55 | 240 | 8.7 | 12.2 | 0.00 | 0.00 | 0.00 | 37 | 1006.7 |
| 20260507213533 | 54 | 247 | 1.7 | 1.7 | 0.00 | 0.00 | 0.00 | 39 | 1006.5 |
| 20260507213030 | 54 | 222 | 5.2 | 6.1 | 0.00 | 0.00 | 0.00 | 37 | 1006.6 |
| 20260507212526 | 53 | 280 | 1.7 | 1.7 | 0.00 | 0.00 | 0.00 | 40 | 1006.6 |
| 20260507212023 | 53 | 269 | 7.0 | 7.8 | 0.00 | 0.00 | 0.00 | 35 | 1006.5 |
| 20260507211520 | 53 | 281 | 4.3 | 7.0 | 0.00 | 0.00 | 0.00 | 36 | 1006.6 |
| 20260507211016 | 53 | 359 | 4.3 | 6.1 | 0.00 | 0.00 | 0.00 | 36 | 1006.5 |
| 20260507210513 | 53 | 265 | 5.2 | 7.8 | 0.00 | 0.00 | 0.00 | 37 | 1006.4 |
| 20260507210010 | 54 | 301 | 2.6 | 2.6 | 0.00 | 0.00 | 0.00 | 38 | 1006.4 |
| 20260507205507 | 54 | 209 | 1.7 | 2.6 | 0.00 | 0.00 | 0.00 | 40 | 1006.2 |
| 20260507205003 | 54 | 263 | 2.6 | 2.6 | 0.00 | 0.00 | 0.00 | 37 | 1006.5 |
| 20260507204459 | 54 | 177 | 1.7 | 4.3 | 0.00 | 0.00 | 0.00 | 39 | 1006.5 |
| 20260507203957 | 55 | 340 | 2.6 | 2.6 | 0.00 | 0.00 | 0.00 | 40 | 1006.3 |
| 20260507203454 | 53 | 70 | 1.7 | 4.3 | 0.00 | 0.00 | 0.00 | 39 | 1006.6 |
| 20260507202951 | 53 | 332 | 3.5 | 4.3 | 0.00 | 0.00 | 0.00 | 37 | 1006.1 |
| 20260507202447 | 53 | 288 | 2.6 | 4.3 | 0.00 | 0.00 | 0.00 | 40 | 1006.4 |
| 20260507201943 | 52 | 10 | 2.6 | 2.6 | 0.00 | 0.00 | 0.00 | 40 | 1006.3 |
| 20260507201438 | 53 | 273 | 9.6 | 12.2 | 0.00 | 0.00 | 0.00 | 36 | 1006.2 |
| 20260507200936 | 53 | 261 | 1.7 | 2.6 | 0.00 | 0.00 | 0.00 | 41 | 1006.4 |
| 20260507200431 | 53 | 300 | 2.6 | 2.6 | 0.00 | 0.00 | 0.00 | 38 | 1006.3 |
| 20260507195927 | 53 | 236 | 1.7 | 4.3 | 0.00 | 0.00 | 0.00 | 38 | 1006.5 |
| 20260507195425 | 54 | 231 | 5.2 | 7.0 | 0.00 | 0.00 | 0.00 | 37 | 1006.4 |
| 20260507194922 | 55 | 270 | 3.5 | 5.2 | 0.00 | 0.00 | 0.00 | 37 | 1006.3 |
| 20260507194418 | 55 | 254 | 3.5 | 5.2 | 0.00 | 0.00 | 0.00 | 38 | 1006.5 |
| 20260507193914 | 53 | 258 | 6.1 | 7.0 | 0.00 | 0.00 | 0.00 | 37 | 1006.4 |
| 20260507193412 | 52 | 228 | 3.5 | 4.3 | 0.00 | 0.00 | 0.00 | 38 | 1006.2 |
| 20260507192909 | 52 | 319 | 5.2 | 7.0 | 0.00 | 0.00 | 0.00 | 37 | 1006.5 |
| 20260507192404 | 53 | 323 | 6.1 | 7.8 | 0.00 | 0.00 | 0.00 | 37 | 1006.5 |
| 20260507191901 | 52 | 192 | 0.9 | 0.9 | 0.00 | 0.00 | 0.00 | 43 | 1006.4 |
| 20260507191357 | 52 | 324 | 6.1 | 7.8 | 0.00 | 0.00 | 0.00 | 39 | 1006.3 |
| 20260507190854 | 52 | 353 | 2.6 | 2.6 | 0.00 | 0.00 | 0.00 | 40 | 1006.4 |
| 20260507190352 | 52 | 298 | 2.6 | 5.2 | 0.00 | 0.00 | 0.00 | 41 | 1006.6 |
| 20260507185851 | 52 | 217 | 3.5 | 5.2 | 0.00 | 0.00 | 0.00 | 40 | 1006.5 |
| 20260507185348 | 52 | 254 | 3.5 | 8.7 | 0.00 | 0.00 | 0.00 | 39 | 1006.4 |
| 20260507184844 | 52 | 301 | 6.1 | 12.2 | 0.00 | 0.00 | 0.00 | 38 | 1006.5 |
| 20260507184343 | 52 | 228 | 7.0 | 9.6 | 0.00 | 0.00 | 0.00 | 38 | 1006.4 |
| 20260507183839 | 52 | 261 | 6.1 | 11.3 | 0.00 | 0.00 | 0.00 | 38 | 1006.4 |
| 20260507183336 | 52 | 292 | 6.1 | 7.8 | 0.00 | 0.00 | 0.00 | 38 | 1006.6 |
| 20260507182834 | 51 | 244 | 7.0 | 9.6 | 0.00 | 0.00 | 0.00 | 39 | 1006.5 |
| 20260507182329 | 51 | 264 | 3.5 | 4.3 | 0.00 | 0.00 | 0.00 | 39 | 1006.2 |
| 20260507181826 | 51 | 16 | 4.3 | 6.1 | 0.00 | 0.00 | 0.00 | 41 | 1006.3 |
| 20260507181322 | 51 | 244 | 2.6 | 4.3 | 0.00 | 0.00 | 0.00 | 41 | 1006.3 |
| 20260507180819 | 52 | 243 | 6.1 | 12.2 | 0.00 | 0.00 | 0.00 | 40 | 1006.5 |
| 20260507180316 | 53 | 263 | 10.4 | 14.8 | 0.00 | 0.00 | 0.00 | 35 | 1006.2 |
| 20260507175811 | 52 | 239 | 6.1 | 12.2 | 0.00 | 0.00 | 0.00 | 39 | 1006.5 |
| 20260507175308 | 53 | 323 | 7.0 | 7.8 | 0.00 | 0.00 | 0.00 | 36 | 1006.3 |
| 20260507174805 | 55 | 261 | 8.7 | 11.3 | 0.00 | 0.00 | 0.00 | 36 | 1006.3 |
| 20260507174304 | 54 | 205 | 2.6 | 4.3 | 0.00 | 0.00 | 0.00 | 39 | 1006.5 |
| 20260507173801 | 54 | 248 | 7.8 | 8.7 | 0.00 | 0.00 | 0.00 | 38 | 1006.3 |
| 20260507173258 | 54 | 234 | 3.5 | 6.1 | 0.00 | 0.00 | 0.00 | 40 | 1006.2 |
| 20260507172754 | 53 | 224 | 7.8 | 8.7 | 0.00 | 0.00 | 0.00 | 39 | 1006.2 |
| 20260507172251 | 53 | 245 | 4.3 | 7.8 | 0.00 | 0.00 | 0.00 | 39 | 1006.1 |
| 20260507171746 | 53 | 265 | 8.7 | 12.2 | 0.00 | 0.00 | 0.00 | 39 | 1006.4 |
| 20260507171244 | 53 | 262 | 6.1 | 8.7 | 0.00 | 0.00 | 0.00 | 39 | 1006.3 |
| 20260507170740 | 52 | 248 | 7.8 | 13.9 | 0.00 | 0.00 | 0.00 | 38 | 1006.2 |
| 20260507170237 | 52 | 238 | 8.7 | 11.3 | 0.00 | 0.00 | 0.00 | 38 | 1006.5 |
| 20260507165733 | 52 | 259 | 4.3 | 7.0 | 0.00 | 0.00 | 0.00 | 41 | 1006.4 |
| 20260507165229 | 52 | 232 | 5.2 | 8.7 | 0.00 | 0.00 | 0.00 | 38 | 1006.3 |
| 20260507164725 | 52 | 257 | 13.9 | 17.4 | 0.00 | 0.00 | 0.00 | 40 | 1006.4 |
| 20260507164223 | 53 | 223 | 6.1 | 9.6 | 0.00 | 0.00 | 0.00 | 43 | 1006.1 |
| 20260507163720 | 53 | 237 | 7.8 | 12.2 | 0.00 | 0.00 | 0.00 | 44 | 1006.4 |
| 20260507163218 | 52 | 218 | 4.3 | 6.1 | 0.00 | 0.00 | 0.00 | 48 | 1006.3 |
| 20260507162713 | 51 | 230 | 3.5 | 5.2 | 0.00 | 0.00 | 0.00 | 49 | 1006.3 |
| 20260507162210 | 52 | 262 | 6.1 | 9.6 | 0.00 | 0.00 | 0.00 | 46 | 1006.5 |
| 20260507161706 | 52 | 250 | 8.7 | 12.2 | 0.00 | 0.00 | 0.00 | 47 | 1006.6 |
| 20260507161203 | 51 | 255 | 6.1 | 7.8 | 0.00 | 0.00 | 0.00 | 48 | 1006.4 |
| 20260507160658 | 51 | 329 | 4.3 | 6.1 | 0.00 | 0.00 | 0.00 | 49 | 1006.4 |
| 20260507160155 | 50 | 211 | 6.1 | 7.8 | 0.00 | 0.00 | 0.00 | 48 | 1006.7 |
| 20260507155651 | 50 | 278 | 8.7 | 12.2 | 0.00 | 0.00 | 0.00 | 48 | 1006.5 |
| 20260507155142 | 51 | 263 | 10.4 | 12.2 | 0.00 | 0.00 | 0.00 | 49 | 1006.5 |
| 20260507154639 | 50 | 236 | 7.0 | 9.6 | 0.00 | 0.00 | 0.00 | 50 | 1006.6 |
| 20260507154137 | 51 | 246 | 19.1 | 21.7 | 0.00 | 0.00 | 0.00 | 48 | 1006.7 |
| 20260507153633 | 50 | 231 | 6.1 | 9.6 | 0.00 | 0.00 | 0.00 | 51 | 1006.6 |
| 20260507153129 | 50 | 262 | 6.1 | 9.6 | 0.00 | 0.00 | 0.00 | 50 | 1006.6 |
| 20260507152626 | 50 | 9 | 8.7 | 15.6 | 0.00 | 0.00 | 0.00 | 52 | 1006.6 |
| 20260507152121 | 50 | 303 | 7.8 | 13.0 | 0.00 | 0.00 | 0.00 | 51 | 1006.7 |
| 20260507151618 | 50 | 241 | 5.2 | 6.1 | 0.00 | 0.00 | 0.00 | 52 | 1006.8 |
| 20260507151115 | 50 | 238 | 4.3 | 6.1 | 0.00 | 0.00 | 0.00 | 52 | 1006.7 |
| 20260507150612 | 49 | 271 | 7.0 | 8.7 | 0.00 | 0.00 | 0.00 | 51 | 1006.6 |
| 20260507150109 | 50 | 259 | 7.8 | 11.3 | 0.00 | 0.00 | 0.00 | 50 | 1006.9 |
| 20260507145604 | 49 | 207 | 7.8 | 13.0 | 0.00 | 0.00 | 0.00 | 52 | 1006.7 |
| 20260507145102 | 48 | 293 | 7.8 | 11.3 | 0.00 | 0.00 | 0.00 | 53 | 1007.0 |
| 20260507144558 | 49 | 258 | 9.6 | 15.6 | 0.00 | 0.00 | 0.00 | 52 | 1006.8 |
| 20260507144056 | 49 | 178 | 7.0 | 12.2 | 0.00 | 0.00 | 0.00 | 52 | 1006.8 |
| 20260507143552 | 49 | 286 | 6.1 | 7.8 | 0.00 | 0.00 | 0.00 | 52 | 1006.9 |
| 20260507143050 | 49 | 304 | 6.1 | 7.0 | 0.00 | 0.00 | 0.00 | 53 | 1006.9 |
| 20260507142550 | 48 | 202 | 3.5 | 7.0 | 0.00 | 0.00 | 0.00 | 53 | 1006.9 |
| 20260507142047 | 48 | 121 | 7.0 | 8.7 | 0.00 | 0.00 | 0.00 | 54 | 1007.1 |
| 20260507141543 | 48 | 236 | 8.7 | 11.3 | 0.00 | 0.00 | 0.00 | 54 | 1007.0 |
| 20260507141040 | 48 | 256 | 7.0 | 9.6 | 0.00 | 0.00 | 0.00 | 54 | 1006.7 |
| 20260507140537 | 48 | 263 | 8.7 | 11.3 | 0.00 | 0.00 | 0.00 | 54 | 1006.8 |
| 20260507140034 | 47 | 187 | 9.6 | 15.6 | 0.00 | 0.00 | 0.00 | 54 | 1006.8 |
| 20260507135531 | 47 | 276 | 9.6 | 12.2 | 0.00 | 0.00 | 0.00 | 54 | 1006.7 |
| 20260507135029 | 48 | 270 | 9.6 | 17.4 | 0.00 | 0.00 | 0.00 | 53 | 1007.0 |
| 20260507134525 | 48 | 182 | 5.2 | 7.8 | 0.00 | 0.00 | 0.00 | 57 | 1006.7 |
| 20260507134020 | 48 | 249 | 7.0 | 7.8 | 0.00 | 0.00 | 0.00 | 57 | 1006.9 |
| 20260507133517 | 47 | 305 | 8.7 | 9.6 | 0.00 | 0.00 | 0.00 | 56 | 1006.7 |
| 20260507133015 | 47 | 242 | 7.0 | 9.6 | 0.00 | 0.00 | 0.00 | 56 | 1006.7 |
| 20260507132511 | 47 | 285 | 9.6 | 13.9 | 0.00 | 0.00 | 0.00 | 55 | 1007.0 |
| 20260507132008 | 47 | 252 | 5.2 | 7.8 | 0.00 | 0.00 | 0.00 | 56 | 1006.9 |
| 20260507131505 | 46 | 272 | 7.8 | 11.3 | 0.00 | 0.00 | 0.00 | 56 | 1006.9 |
| 20260507131002 | 47 | 266 | 3.5 | 4.3 | 0.00 | 0.00 | 0.00 | 56 | 1007.0 |
| 20260507130459 | 46 | 226 | 10.4 | 13.9 | 0.00 | 0.00 | 0.00 | 56 | 1007.0 |
| 20260507125957 | 46 | 248 | 7.8 | 11.3 | 0.00 | 0.00 | 0.00 | 60 | 1006.9 |
| 20260507125455 | 46 | 263 | 7.0 | 8.7 | 0.00 | 0.00 | 0.00 | 60 | 1006.9 |
| 20260507124952 | 46 | 238 | 5.2 | 6.1 | 0.00 | 0.00 | 0.00 | 61 | 1006.9 |
| 20260507124448 | 45 | 250 | 5.2 | 7.8 | 0.00 | 0.00 | 0.00 | 61 | 1007.1 |
| 20260507123947 | 46 | 266 | 5.2 | 7.0 | 0.00 | 0.00 | 0.00 | 60 | 1007.2 |
| 20260507123444 | 45 | 248 | 6.1 | 9.6 | 0.00 | 0.00 | 0.00 | 61 | 1007.4 |
| 20260507122940 | 45 | 267 | 6.1 | 7.8 | 0.00 | 0.00 | 0.00 | 61 | 1007.2 |
| 20260507122436 | 45 | 285 | 7.0 | 11.3 | 0.00 | 0.00 | 0.00 | 60 | 1007.0 |
| 20260507121932 | 45 | 259 | 9.6 | 12.2 | 0.00 | 0.00 | 0.00 | 62 | 1007.0 |
| 20260507121427 | 45 | 297 | 8.7 | 11.3 | 0.00 | 0.00 | 0.00 | 73 | 1007.5 |
| 20260507120924 | 45 | 250 | 5.2 | 7.0 | 0.00 | 0.00 | 0.00 | 77 | 1007.1 |
| 20260507120420 | 45 | 247 | 3.5 | 4.3 | 0.00 | 0.00 | 0.00 | 79 | 1007.2 |
| 20260507115917 | 45 | 228 | 3.5 | 5.2 | 0.00 | 0.00 | 0.00 | 80 | 1007.0 |
| 20260507115413 | 45 | 257 | 5.2 | 6.1 | 0.00 | 0.00 | 0.00 | 78 | 1006.8 |
| 20260507114909 | 45 | 270 | 6.1 | 7.8 | 0.00 | 0.00 | 0.00 | 79 | 1007.1 |
| 20260507114406 | 45 | 264 | 7.0 | 8.7 | 0.00 | 0.00 | 0.00 | 79 | 1007.0 |
| 20260507113903 | 45 | 259 | 7.8 | 11.3 | 0.00 | 0.00 | 0.00 | 80 | 1007.1 |
| 20260507113400 | 45 | 278 | 5.2 | 7.0 | 0.00 | 0.00 | 0.00 | 79 | 1006.9 |
| 20260507112857 | 45 | 265 | 9.6 | 12.2 | 0.00 | 0.00 | 0.00 | 79 | 1007.0 |
| 20260507112354 | 45 | 238 | 3.5 | 4.3 | 0.00 | 0.00 | 0.00 | 79 | 1006.9 |
| 20260507111852 | 45 | 243 | 4.3 | 5.2 | 0.00 | 0.00 | 0.00 | 80 | 1007.0 |
| 20260507111349 | 45 | 203 | 2.6 | 4.3 | 0.00 | 0.00 | 0.00 | 81 | 1007.0 |
| 20260507110845 | 45 | 182 | 1.7 | 4.3 | 0.00 | 0.00 | 0.00 | 81 | 1006.6 |
| 20260507110341 | 45 | 283 | 5.2 | 6.1 | 0.00 | 0.00 | 0.00 | 81 | 1006.6 |
| 20260507105838 | 45 | 263 | 9.6 | 11.3 | 0.00 | 0.00 | 0.00 | 81 | 1006.5 |
| 20260507105335 | 45 | 253 | 6.1 | 8.7 | 0.00 | 0.00 | 0.00 | 82 | 1006.4 |
| 20260507104832 | 45 | 239 | 7.0 | 8.7 | 0.00 | 0.00 | 0.00 | 82 | 1006.5 |
| 20260507104328 | 45 | 247 | 4.3 | 7.0 | 0.00 | 0.00 | 0.00 | 82 | 1006.6 |
| 20260507103824 | 45 | 282 | 2.6 | 4.3 | 0.00 | 0.00 | 0.00 | 81 | 1006.3 |
| 20260507103321 | 45 | 218 | 3.5 | 4.3 | 0.00 | 0.00 | 0.00 | 82 | 1006.2 |
| 20260507102817 | 45 | 259 | 5.2 | 7.8 | 0.00 | 0.00 | 0.00 | 83 | 1006.4 |
| 20260507102314 | 45 | 246 | 7.0 | 8.7 | 0.00 | 0.00 | 0.00 | 83 | 1006.3 |
| 20260507101810 | 45 | 237 | 5.2 | 6.1 | 0.00 | 0.00 | 0.00 | 83 | 1006.3 |
| 20260507101305 | 45 | 206 | 6.1 | 7.0 | 0.00 | 0.00 | 0.00 | 84 | 1006.4 |
| 20260507100802 | 45 | 280 | 6.1 | 7.0 | 0.00 | 0.00 | 0.00 | 84 | 1006.6 |
| 20260507100300 | 45 | 208 | 5.2 | 7.8 | 0.00 | 0.00 | 0.00 | 83 | 1006.5 |
| 20260507095758 | 45 | 252 | 8.7 | 11.3 | 0.00 | 0.00 | 0.00 | 83 | 1006.7 |
| 20260507095254 | 45 | 207 | 4.3 | 5.2 | 0.00 | 0.00 | 0.00 | 84 | 1006.4 |
| 20260507094751 | 45 | 265 | 4.3 | 7.0 | 0.00 | 0.00 | 0.00 | 83 | 1006.5 |
| 20260507094248 | 45 | 223 | 6.1 | 7.8 | 0.00 | 0.00 | 0.00 | 84 | 1006.4 |
| 20260507093745 | 45 | 272 | 3.5 | 6.1 | 0.00 | 0.00 | 0.00 | 84 | 1006.5 |
| 20260507093244 | 45 | 259 | 6.1 | 9.6 | 0.00 | 0.00 | 0.00 | 84 | 1006.2 |
| 20260507092741 | 45 | 266 | 5.2 | 7.0 | 0.00 | 0.00 | 0.00 | 84 | 1006.2 |
| 20260507092237 | 45 | 210 | 1.7 | 2.6 | 0.00 | 0.00 | 0.00 | 84 | 1006.3 |
| 20260507091734 | 45 | 242 | 3.5 | 4.3 | 0.00 | 0.00 | 0.00 | 84 | 1006.3 |
| 20260507091230 | 45 | 280 | 3.5 | 4.3 | 0.00 | 0.00 | 0.00 | 84 | 1006.4 |
| 20260507090725 | 45 | 207 | 4.3 | 5.2 | 0.00 | 0.00 | 0.00 | 85 | 1006.2 |
| 20260507090222 | 45 | 184 | 1.7 | 1.7 | 0.00 | 0.00 | 0.00 | 85 | 1006.4 |
| 20260507085720 | 45 | 179 | 1.7 | 2.6 | 0.00 | 0.00 | 0.00 | 85 | 1006.2 |
| 20260507085216 | 45 | 235 | 2.6 | 4.3 | 0.00 | 0.00 | 0.00 | 85 | 1006.4 |
| 20260507084713 | 45 | 266 | 5.2 | 7.0 | 0.00 | 0.00 | 0.00 | 85 | 1006.3 |
| 20260507084210 | 45 | 166 | 0.9 | 1.7 | 0.00 | 0.00 | 0.00 | 85 | 1006.4 |
| 20260507083707 | 45 | 197 | 0.9 | 1.7 | 0.00 | 0.00 | 0.00 | 85 | 1006.7 |
| 20260507083204 | 45 | 198 | 1.7 | 1.7 | 0.00 | 0.00 | 0.00 | 85 | 1006.4 |
| 20260507082700 | 45 | 173 | 1.7 | 1.7 | 0.00 | 0.00 | 0.00 | 85 | 1006.6 |
| 20260507082156 | 44 | 239 | 2.6 | 2.6 | 0.00 | 0.00 | 0.00 | 85 | 1006.7 |
| 20260507081653 | 44 | 200 | 2.6 | 4.3 | 0.00 | 0.00 | 0.00 | 85 | 1006.6 |
| 20260507081149 | 44 | 296 | 6.1 | 7.8 | 0.00 | 0.00 | 0.00 | 86 | 1006.8 |
| 20260507080646 | 44 | 209 | 2.6 | 4.3 | 0.00 | 0.00 | 0.00 | 86 | 1006.7 |
| 20260507080142 | 44 | 172 | 1.7 | 1.7 | 0.00 | 0.00 | 0.00 | 86 | 1006.9 |
| 20260507075643 | 43 | 166 | 1.7 | 2.6 | 0.00 | 0.00 | 0.00 | 87 | 1006.8 |
| 20260507075139 | 43 | 214 | 1.7 | 1.7 | 0.00 | 0.00 | 0.00 | 87 | 1006.9 |
| 20260507074636 | 43 | 165 | 2.6 | 2.6 | 0.00 | 0.00 | 0.00 | 87 | 1006.8 |
| 20260507074134 | 43 | 195 | 2.6 | 4.3 | 0.00 | 0.00 | 0.00 | 87 | 1006.8 |
| 20260507073630 | 43 | 196 | 1.7 | 1.7 | 0.00 | 0.00 | 0.00 | 87 | 1006.6 |
| 20260507073126 | 43 | 228 | 4.3 | 5.2 | 0.00 | 0.00 | 0.00 | 86 | 1006.7 |
| 20260507072624 | 43 | 199 | 2.6 | 4.3 | 0.00 | 0.00 | 0.00 | 87 | 1006.8 |
| 20260507072121 | 43 | 181 | 1.7 | 1.7 | 0.00 | 0.00 | 0.00 | 87 | 1006.8 |
| 20260507071619 | 43 | 163 | 0.0 | 0.9 | 0.00 | 0.00 | 0.00 | 87 | 1006.8 |
| 20260507071115 | 43 | 167 | 1.7 | 1.7 | 0.00 | 0.00 | 0.00 | 86 | 1006.8 |
| 20260507070612 | 43 | 205 | 6.1 | 7.0 | 0.00 | 0.00 | 0.00 | 86 | 1006.6 |
| 20260507070109 | 43 | 194 | 4.3 | 5.2 | 0.00 | 0.00 | 0.00 | 87 | 1007.0 |
| 20260507065605 | 43 | 174 | 2.6 | 2.6 | 0.00 | 0.00 | 0.00 | 87 | 1006.9 |
| 20260507065057 | 43 | 191 | 1.7 | 1.7 | 0.00 | 0.00 | 0.00 | 87 | 1006.7 |
| 20260507064555 | 43 | 182 | 0.9 | 0.9 | 0.00 | 0.00 | 0.00 | 87 | 1006.7 |
| 20260507064053 | 43 | 180 | 0.9 | 0.9 | 0.00 | 0.00 | 0.00 | 86 | 1007.1 |
| 20260507063550 | 43 | 243 | 0.9 | 1.7 | 0.00 | 0.00 | 0.00 | 86 | 1006.8 |
| 20260507063047 | 43 | 217 | 0.9 | 1.7 | 0.00 | 0.00 | 0.00 | 87 | 1006.8 |
| 20260507062544 | 43 | 223 | 2.6 | 2.6 | 0.00 | 0.00 | 0.00 | 86 | 1006.8 |
| 20260507062042 | 43 | 171 | 2.6 | 2.6 | 0.00 | 0.00 | 0.00 | 86 | 1007.1 |
| 20260507061539 | 44 | 197 | 0.0 | 0.9 | 0.00 | 0.00 | 0.00 | 85 | 1007.0 |
| 20260507061037 | 44 | 261 | 4.3 | 5.2 | 0.00 | 0.00 | 0.00 | 84 | 1006.9 |
| 20260507060535 | 44 | 222 | 2.6 | 2.6 | 0.00 | 0.00 | 0.00 | 84 | 1006.9 |
| 20260507060031 | 44 | 223 | 2.6 | 2.6 | 0.00 | 0.00 | 0.00 | 84 | 1007.0 |
| 20260507055531 | 43 | 163 | 1.7 | 2.6 | 0.00 | 0.00 | 0.00 | 85 | 1007.2 |
| 20260507055028 | 44 | 194 | 1.7 | 1.7 | 0.00 | 0.00 | 0.00 | 84 | 1007.1 |
| 20260507054524 | 43 | 245 | 4.3 | 6.1 | 0.00 | 0.00 | 0.00 | 85 | 1007.1 |
| 20260507054021 | 43 | 249 | 0.9 | 0.9 | 0.00 | 0.00 | 0.00 | 85 | 1007.4 |
| 20260507053519 | 43 | 211 | 0.9 | 1.7 | 0.00 | 0.00 | 0.00 | 85 | 1007.1 |
| 20260507053018 | 43 | 207 | 2.6 | 2.6 | 0.00 | 0.00 | 0.00 | 85 | 1007.2 |
| 20260507052515 | 43 | 210 | 1.7 | 1.7 | 0.00 | 0.00 | 0.00 | 85 | 1007.5 |
| 20260507052011 | 43 | 169 | 1.7 | 4.3 | 0.00 | 0.00 | 0.00 | 85 | 1007.5 |
| 20260507051509 | 43 | 212 | 0.9 | 1.7 | 0.00 | 0.00 | 0.00 | 85 | 1007.5 |
| 20260507051006 | 44 | 226 | 1.7 | 1.7 | 0.00 | 0.00 | 0.00 | 84 | 1007.6 |
| 20260507050502 | 44 | 202 | 2.6 | 2.6 | 0.00 | 0.00 | 0.00 | 83 | 1007.5 |
| 20260507045959 | 44 | 181 | 0.9 | 1.7 | 0.00 | 0.00 | 0.00 | 83 | 1007.6 |
| 20260507045455 | 44 | 182 | 2.6 | 2.6 | 0.00 | 0.00 | 0.00 | 84 | 1008.0 |
| 20260507044953 | 44 | 170 | 0.9 | 0.9 | 0.00 | 0.00 | 0.00 | 84 | 1007.8 |
| 20260507044449 | 44 | 255 | 2.6 | 2.6 | 0.00 | 0.00 | 0.00 | 83 | 1007.8 |
| 20260507043945 | 44 | 195 | 0.9 | 0.9 | 0.00 | 0.00 | 0.00 | 83 | 1008.0 |
| 20260507043442 | 44 | 175 | 0.9 | 1.7 | 0.00 | 0.00 | 0.00 | 83 | 1008.1 |
| 20260507042938 | 44 | 232 | 1.7 | 1.7 | 0.00 | 0.00 | 0.00 | 83 | 1008.1 |
| 20260507042435 | 43 | 181 | 1.7 | 1.7 | 0.00 | 0.00 | 0.00 | 85 | 1008.0 |
| 20260507041931 | 44 | 230 | 1.7 | 2.6 | 0.00 | 0.00 | 0.00 | 84 | 1008.1 |
| 20260507041428 | 44 | 232 | 3.5 | 4.3 | 0.00 | 0.00 | 0.00 | 84 | 1008.2 |
| 20260507040925 | 44 | 219 | 1.7 | 4.3 | 0.00 | 0.00 | 0.00 | 84 | 1008.3 |
| 20260507040421 | 44 | 206 | 1.7 | 1.7 | 0.00 | 0.00 | 0.00 | 83 | 1008.1 |
| 20260507035917 | 44 | 179 | 2.6 | 4.3 | 0.00 | 0.41 | 0.41 | 82 | 1008.1 |
| 20260507035413 | 44 | 205 | 3.5 | 4.3 | 0.00 | 0.41 | 0.41 | 82 | 1008.2 |
| 20260507034910 | 44 | 183 | 0.9 | 0.9 | 0.00 | 0.41 | 0.41 | 82 | 1008.4 |
| 20260507034407 | 44 | 242 | 3.5 | 4.3 | 0.00 | 0.41 | 0.41 | 81 | 1008.3 |
| 20260507033905 | 44 | 194 | 1.7 | 2.6 | 0.00 | 0.41 | 0.41 | 81 | 1008.3 |
| 20260507033403 | 45 | 177 | 1.7 | 1.7 | 0.00 | 0.41 | 0.41 | 81 | 1008.5 |
| 20260507032900 | 45 | 287 | 1.7 | 1.7 | 0.00 | 0.41 | 0.41 | 82 | 1008.2 |
| 20260507032356 | 45 | 234 | 1.7 | 4.3 | 0.00 | 0.41 | 0.41 | 82 | 1008.8 |
| 20260507031852 | 45 | 208 | 3.5 | 4.3 | 0.00 | 0.41 | 0.41 | 82 | 1008.4 |
| 20260507031349 | 45 | 243 | 3.5 | 4.3 | 0.00 | 0.41 | 0.41 | 81 | 1008.6 |
| 20260507030846 | 45 | 208 | 3.5 | 5.2 | 0.00 | 0.41 | 0.41 | 81 | 1008.2 |
| 20260507030344 | 45 | 195 | 1.7 | 1.7 | 0.00 | 0.41 | 0.41 | 81 | 1008.7 |
| 20260507025840 | 45 | 205 | 1.7 | 1.7 | 0.00 | 0.41 | 0.41 | 81 | 1008.6 |
| 20260507025338 | 45 | 209 | 1.7 | 1.7 | 0.00 | 0.41 | 0.41 | 81 | 1008.6 |
| 20260507024835 | 45 | 220 | 1.7 | 2.6 | 0.00 | 0.41 | 0.41 | 81 | 1008.6 |
| 20260507024332 | 45 | 266 | 2.6 | 2.6 | 0.00 | 0.41 | 0.41 | 80 | 1008.6 |
| 20260507023828 | 45 | 247 | 1.7 | 4.3 | 0.00 | 0.41 | 0.41 | 80 | 1008.8 |
| 20260507023325 | 45 | 263 | 2.6 | 2.6 | 0.00 | 0.41 | 0.41 | 80 | 1008.4 |
| 20260507022822 | 45 | 269 | 3.5 | 5.2 | 0.00 | 0.41 | 0.41 | 80 | 1008.8 |
| 20260507022319 | 45 | 261 | 3.5 | 5.2 | 0.00 | 0.41 | 0.41 | 80 | 1008.7 |
| 20260507021815 | 45 | 284 | 2.6 | 2.6 | 0.00 | 0.41 | 0.41 | 80 | 1009.0 |
| 20260507021311 | 45 | 257 | 2.6 | 2.6 | 0.00 | 0.41 | 0.41 | 79 | 1008.8 |
| 20260507020809 | 45 | 225 | 2.6 | 2.6 | 0.00 | 0.41 | 0.41 | 79 | 1008.8 |
| 20260507020305 | 45 | 263 | 3.5 | 4.3 | 0.00 | 0.41 | 0.41 | 78 | 1008.9 |
| 20260507015803 | 45 | 220 | 2.6 | 2.6 | 0.00 | 0.41 | 0.41 | 78 | 1009.0 |
| 20260507015300 | 45 | 201 | 0.9 | 1.7 | 0.00 | 0.41 | 0.41 | 78 | 1009.0 |
| 20260507014757 | 45 | 193 | 0.9 | 0.9 | 0.00 | 0.41 | 0.41 | 77 | 1009.1 |
| 20260507014253 | 45 | 261 | 2.6 | 2.6 | 0.00 | 0.41 | 0.41 | 75 | 1009.2 |
| 20260507013749 | 45 | 287 | 3.5 | 4.3 | 0.00 | 0.41 | 0.41 | 74 | 1009.0 |
| 20260507013247 | 45 | 263 | 2.6 | 2.6 | 0.00 | 0.41 | 0.41 | 73 | 1008.9 |
| 20260507012744 | 45 | 248 | 2.6 | 2.6 | 0.00 | 0.41 | 0.41 | 75 | 1008.8 |
| 20260507012244 | 45 | 197 | 2.6 | 2.6 | 0.00 | 0.41 | 0.41 | 77 | 1008.9 |
| 20260507011743 | 45 | 220 | 1.7 | 1.7 | 0.00 | 0.41 | 0.41 | 79 | 1009.0 |
| 20260507011239 | 45 | 215 | 1.7 | 1.7 | 0.00 | 0.41 | 0.41 | 81 | 1009.1 |
| 20260507010738 | 45 | 168 | 0.9 | 1.7 | 0.00 | 0.41 | 0.41 | 81 | 1008.9 |
| 20260507010234 | 45 | 185 | 0.9 | 0.9 | 0.00 | 0.41 | 0.41 | 82 | 1009.0 |
| 20260507005732 | 45 | 166 | 0.0 | 0.9 | 0.00 | 0.41 | 0.41 | 81 | 1008.7 |